Hourly Weather Roundup
Issued by NWS Central Illinois

Home | Current Version | Previous Version | Graphics & Text | Print | Product List | Glossary On
Versions: 1 2 3 4 5 6 7 8 9 10 11 12 13 14 15 16 17 18 19 20 21 22 23 24 25 26 27 28 29 30 31 32 33 34 35 36 37 38 39 40 41 42 43 44 45 46 47 48 49 50
000
NZUS43 KILX 230210
HWRILX

Area Weather Roundup
National Weather Service Lincoln IL
900 PM CDT MON MAY 22 2017

NOTE:  "FAIR" indicates few or no clouds below 12,000 feet, with
       no sigificant weather and/or obstructions to visibility.


CITY           SKY/WX    TMP DP  RH WIND       PRES   REMARKS
Bloomington    CLOUDY    57  55  93 SW7       29.98F
Champaign      CLOUDY    62  53  72 NW10      29.98R
Danville       CLOUDY    62  50  64 CALM      29.95S
Decatur        LGT RAIN  60  55  83 N7        29.97F
Effingham      PTCLDY    60  57  90 CALM      29.99R
Flora          CLOUDY    67  54  61 CALM      29.98S
Galesburg      CLOUDY    59  55  88 S9        29.91S
Jacksonville   CLOUDY    59  58  97 E3        29.95R
Lacon          MOCLDY    59  55  88 S7        29.94R
Lawrenceville  CLOUDY    67  48  50 S6        29.99R
Litchfield     CLOUDY    60  57  90 N9        29.96R
$$


CITY           SKY/WX    TMP DP  RH WIND       PRES   REMARKS
Lincoln        RAIN      60  59  97 CALM      29.96F
Macomb         LGT RAIN  58  56  93 SW8       29.97R
Mattoon        PTCLDY    62  53  72 CALM      29.97R
Mt Carmel AP   CLOUDY    66  48  52 S6        29.99R
Olney-Noble AP PTCLDY    64  55  73 CALM      29.99R
Paris AP       PTCLDY    61  53  76 CALM      29.99R
Peoria         LGT RAIN  58  57  97 S8        29.95R
Pontiac        CLOUDY    61  57  87 S9        29.95F
Rantoul        CLOUDY    64  55  75 W6        29.97F
Robinson       PTCLDY    62  55  75 CALM      29.99R
Springfield    CLOUDY    60  59  96 E5        29.96F
Taylorville    CLOUDY    60  57  90 N7        29.97S
$$

...REGIONAL REPORTS...


CITY           SKY/WX    TMP DP  RH WIND       PRES   REMARKS
Chicago O`Hare MOCLDY    63  53  70 SW13G23   29.91R
Kankakee       DRIZZLE   63  51  66 SW8       29.97S
Moline         CLOUDY    61  55  81 SW10      29.88R
Mount Sterling LGT RAIN  57  54  89 SW6G16    29.96R
Mount Vernon     N/A     60  55  83 CALM      29.97S
Pittsfield     CLOUDY    60  59  96 NW10      29.97R
Quincy         CLOUDY    59  57  93 W7        29.96S
Rockford       MOCLDY    61  53  75 S15       29.89S
$$


CITY           SKY/WX    TMP DP  RH WIND       PRES   REMARKS
Burlington     CLOUDY    60  58  92 SW13      29.91S
Cedar Rapids   CLOUDY    61  57  87 SW12      29.85R
Des Moines     LGT RAIN  60  51  72 W14       29.87R
Kirksville     LGT RAIN  56  55  97 S5        29.95S
Ottumwa        CLOUDY    60  55  83 SW10      29.88R
St Louis       CLOUDY    73  47  39 S6        29.94F
$$


CITY           SKY/WX    TMP DP  RH WIND       PRES   REMARKS
Terre Haute    CLOUDY    63  52  67 CALM      29.98S
Evansville     MOCLDY    65  50  58 CALM      30.00R
Indianapolis   CLOUDY    67  44  43 CALM      29.98F
Lafayette      CLOUDY    64  49  57 CALM      29.96F
Madison        CLOUDY    61  54  77 S8        29.83S
Milwaukee      CLOUDY    63  52  67 SW3       29.86R
$$






USA.gov is the U.S. government's official web portal to all federal, state and local government web resources and services.